Location: Peebles
(55.6410°N, 3.1709°W)
Time: 15:41:53
(UTC+01:00)

Daily predictions for brighter satellites

Satellite Brightness Start Highest point End
(mag) Time Altitude Azimuth Time Altitude Azimuth Time Altitude Azimuth
NOSS 3-4 (A) 3.9 22:41:10 10° NW 22:47:56 77° SW 22:55:27 10° SE
NOSS 3-4 (C) 3.9 22:41:16 10° NW 22:48:02 77° SW 22:55:34 10° SE
Cosmos 1709 Rocket 4.4 22:43:45 10° SSW 22:50:04 73° WNW 22:56:30 10° N
Cosmos 1408 4.2 22:47:36 10° SE 22:50:16 20° E 22:52:58 10° NE
Cosmos 2344 4.5 22:45:52 10° SSE 22:51:48 26° ESE 22:58:07 10° ENE
Cosmos 2333 Rocket 2.2 22:49:50 10° SSW 22:55:33 80° ESE 23:01:19 10° NE
COSMOS 2455 3.6 22:51:56 10° NW 22:57:51 51° NE 23:03:43 10° ESE
ATLAS 5 CENTAUR R/B 2.0 22:54:19 10° WSW 22:58:40 73° NNW 23:03:43 10° NE
Cosmos 1892 3.4 22:55:50 10° SSE 22:59:21 38° E 23:02:55 10° NNE
Cosmos 1943 Rocket 3.3 22:54:48 10° NNW 23:00:08 39° NE 23:05:25 10° ESE
SL-16 R/B 4.3 22:55:59 10° W 23:01:07 33° NW 23:06:16 10° NNE
SAR-Lupe-2 3.7 22:57:32 10° NNE 23:01:09 83° WNW 23:04:45 10° SSW
NOSS 3-3 (A) 4.0 22:55:16 10° SSW 23:01:11 65° SE 23:07:59 10° NE
NOSS 3-3 (C) 4.0 22:55:22 10° SSW 23:01:18 64° SE 23:08:05 10° NE
ATLAS CENTAUR R/B 3.3 22:59:48 10° WNW 23:02:06 16° WSW 23:04:22 10° SSW
Cosmos 1606 4.3 23:00:34 10° N 23:03:48 24° ENE 23:07:02 10° ESE
Resurs 01 Rocket 4.2 23:01:55 10° SW 23:04:40 16° W 23:07:26 10° NW
Cosmos 1624 Rocket 4.1 22:59:25 10° NNW 23:04:41 73° ENE 23:09:53 10° SE
Cosmos 2278 Rocket 2.7 23:00:38 10° NW 23:06:10 54° WSW 23:11:40 10° S
SPOT 5 3.3 23:01:23 10° S 23:06:14 58° WSW 23:10:51 10° NNW
Cosmos 2184 Rocket 4.1 23:03:25 10° S 23:09:38 72° E 23:15:58 10° NNE
Cosmos 1315 Rocket 4.3 23:07:31 10° NNW 23:11:15 34° W 23:15:00 10° SSW
Cosmos 2297 4.0 23:05:31 10° NNW 23:11:17 68° NE 23:16:59 10° SE
Cosmos 1076 Rocket 3.8 23:10:43 10° S 23:14:52 50° E 23:19:00 10° NNE
ATLAS 2AS CENTAUR R/B 3.1 23:07:52 10° NW 23:15:30 64° SW 23:22:30 10° SSE
Cosmos 2151 4.2 23:12:34 10° SE 23:16:10 27° E 23:19:45 10° NNE
Cosmos 1538 Rocket 4.3 23:13:00 10° SSW 23:18:21 77° WNW 23:23:41 10° NNE
SL-16 R/B 3.5 23:18:04 10° SSE 23:22:28 24° ESE 23:26:52 10° NE
MTI 4.0 23:19:44 10° NNE 23:22:46 48° ESE 23:25:43 10° S
Meteor 2-17 Rocket 4.5 23:16:49 10° S 23:22:51 75° E 23:28:55 10° NNE
ERS-1 Rocket 4.1 23:18:13 10° SSW 23:22:57 40° W 23:27:42 10° NNW
CREW DRAGON DEMO-1 DEB 4.3 23:21:18 10° SSW 23:23:28 18° SSE 23:25:39 10° ESE
USA 215 3.7 23:18:59 10° ENE 23:25:05 39° SE 23:31:06 10° SSW
Cosmos 371 Rocket 3.7 23:22:18 10° NNW 23:27:08 57° ENE 23:31:54 10° SE
Cosmos 158 Rocket 4.1 23:23:14 10° S 23:27:55 50° ESE 23:32:42 10° NE
In-Cosmos 22 Rocket 4.1 23:25:53 10° S 23:31:11 80° E 23:36:34 10° NNE
RESURS DK-1 4.1 23:27:35 10° NNW 23:31:15 29° NE 23:34:53 10° E
Cosmos 1371 Rocket 4.2 23:28:13 10° NNW 23:33:27 68° WSW 23:38:27 11° SSE
Thor Agena Rocket 4.3 23:29:23 10° NNE 23:34:07 36° E 23:38:26 12° SSE
Cosmos 1151 Rocket 3.8 23:32:50 10° N 23:37:00 42° ENE 23:40:49 12° SE
Lacrosse 5 rocket 1.2 23:36:55 10° WNW 23:41:05 85° SSW 23:44:59 10° ESE
Nadezhda 3 Rocket 4.2 23:34:51 10° NNW 23:41:14 74° W 23:47:31 10° S
Cosmos 1825 2.6 23:38:19 12° SSE 23:41:33 46° E 23:45:13 10° NNE
Cosmos 1420 Rocket 4.1 23:40:43 10° NNW 23:46:02 83° ENE 23:50:54 12° SSE
Terra 3.0 23:42:20 10° SSW 23:46:44 36° W 23:51:08 10° NNW
Cosmos 2112 Rocket 4.1 23:42:02 10° SSW 23:47:20 67° ESE 23:52:41 10° NNE
APEX 2.4 23:47:12 10° NNW 23:49:57 71° NE 23:52:11 14° SE
Cosmos 2154 Rocket 4.0 23:43:51 10° S 23:50:03 88° E 23:56:20 10° NNE
Aureole 2 Rocket 2.3 23:47:30 10° NW 23:50:17 54° WSW 23:52:29 16° S
Cosmos 2074 Rocket 4.4 23:47:16 10° SSW 23:53:25 63° WNW 23:59:37 10° N
ATLAS 5 CENTAUR R/B 3.2 23:55:28 10° WNW 23:57:14 25° N 23:59:28 10° ENE
